DW7229 Weather Reports


Display with metric or nautical units.
time (UTC)temp
F
wind
direction
speed
MPH
gust
MPH
rain 1hr
in
rain 24hr
in
rain mn
in
humidity
%
barometer
mb
20260902234017 66 0.0 0.0 0.00 9.90 0.00 80 1020.4
20260902233020 66 0.0 0.0 0.00 9.90 0.00 79 1020.5
20260902232024 66 0.0 0.0 0.00 9.90 0.00 79 1020.6
20260902231027 66 0.0 0.0 0.00 9.90 0.00 78 1020.5
20260902230030 67 0.0 0.0 0.00 9.90 0.00 77 1020.7
20260902225016 67 0.0 0.0 0.00 9.90 0.00 77 1020.5
20260902224019 68 0.0 0.0 0.00 9.90 0.00 76 1020.8
20260902223042 68 0.0 0.0 0.00 9.90 0.00 76 1020.8
20260902222025 68 0.0 0.0 0.00 9.90 0.00 75 1020.6
20260902221029 69 0.0 0.0 0.00 9.90 0.00 74 1020.9
20260902220032 70 0.0 0.0 0.00 9.90 0.00 73 1021.0
20260902215017 71 0.0 0.0 0.00 9.90 0.00 72 1020.8
20260902214041 71 0.0 0.0 0.00 9.90 0.00 71 1020.7
20260902213024 72 0.0 0.0 0.00 9.90 0.00 70 1020.6
20260902212028 72 0.0 0.0 0.00 9.90 0.00 70 1020.4
20260902211025 72 0.0 0.0 0.00 9.90 0.00 69 1020.6
20260902210056 73 0.0 0.0 0.00 9.90 0.00 69 1020.5
20260902205059 73 0.0 0.0 0.00 9.90 0.00 69 1020.7
20260902204016 71 0.0 0.0 0.00 9.90 0.00 71 1020.9
20260902203106 72 0.0 0.0 0.00 9.90 0.00 70 1021.0
20260902202029 71 0.0 0.0 0.00 9.90 0.00 71 1021.0
20260902201032 70 0.0 0.0 0.00 9.90 0.00 73 1021.4
20260902200017 70 0.0 0.0 0.00 9.90 0.00 72 1021.4
20260902195041 70 0.0 0.0 0.00 9.90 0.00 72 1021.4
20260902194024 71 0.0 0.0 0.00 9.90 0.00 71 1021.5
20260902193027 72 0.0 0.0 0.00 9.90 0.00 70 1021.6
20260902192031 71 0.0 0.0 0.00 9.90 0.00 72 1021.7
20260902191016 71 0.0 0.0 0.00 9.90 0.00 71 1021.6
20260902190039 72 0.0 0.0 0.00 9.90 0.00 71 1021.3
20260902185023 72 0.0 0.0 0.00 9.90 0.00 71 1021.4
20260902184026 72 0.0 0.0 0.00 9.90 0.00 71 1021.4
20260902183029 71 0.0 0.0 0.00 9.90 0.00 72 1021.4
20260902182053 70 0.0 0.0 0.00 9.90 0.00 73 1021.4
20260902181018 70 0.0 0.0 0.00 9.90 0.00 73 1021.6
20260902180021 69 0.0 0.0 0.00 9.90 0.00 75 1021.6
20260902175045 70 0.0 0.0 0.00 9.90 0.00 75 1021.6
20260902174028 70 0.0 0.0 0.00 9.90 0.00 74 1021.7
20260902173025 70 0.0 0.0 0.00 9.90 0.00 74 1021.7
20260902172016 70 0.0 0.0 0.00 9.90 0.00 74 1021.8
20260902171019 70 0.0 0.0 0.00 9.90 0.00 74 1021.6
20260902170017 70 0.0 0.0 0.00 9.90 0.00 74 1021.7
20260902165026 70 0.0 0.0 0.00 9.90 0.00 74 1021.6
20260902164029 70 0.0 0.0 0.00 9.90 0.00 75 1021.8
20260902163015 69 0.0 0.0 0.00 9.90 0.00 75 1021.9
20260902162018 69 0.0 0.0 0.00 9.90 0.00 75 1022.0
20260902161021 70 0.0 0.0 0.00 9.90 0.00 74 1022.1
20260902160025 71 0.0 0.0 0.00 9.90 0.00 72 1022.2
20260902155028 71 0.0 0.0 0.00 9.90 0.00 73 1022.3
20260902154031 71 0.0 0.0 0.00 9.90 0.00 74 1022.4
20260902153017 70 0.0 0.0 0.00 9.90 0.00 75 1022.5
20260902152020 69 0.0 0.0 0.00 9.90 0.00 77 1022.6
20260902151023 69 0.0 0.0 0.00 9.90 0.00 76 1022.7
20260902150107 69 0.0 0.0 0.00 9.90 0.00 79 1022.6
20260902145029 68 0.0 0.0 0.00 9.90 0.00 79 1022.3
20260902144015 68 0.0 0.0 0.00 9.90 0.00 80 1022.1
20260902143018 68 0.0 0.0 0.00 9.90 0.00 80 1022.0
20260902142021 67 0.0 0.0 0.00 9.90 0.00 83 1021.8
20260902141025 66 0.0 0.0 0.00 9.90 0.00 86 1021.9
20260902140209 66 0.0 0.0 0.00 9.90 0.00 86 1021.6
20260902135025 66 0.0 0.0 0.00 9.90 0.00 88 1021.7
20260902134016 65 0.0 0.0 0.00 9.90 0.00 88 1021.7
20260902133020 66 0.0 0.0 0.00 9.90 0.00 89 1021.7
20260902132017 65 0.0 0.0 0.00 9.90 0.00 89 1021.9
20260902131046 65 0.0 0.0 0.00 9.90 0.00 90 1021.8
20260902130030 65 0.0 0.0 0.00 9.90 0.00 93 1021.8
20260902125015 64 0.0 0.0 0.00 9.90 0.00 95 1021.9
20260902124019 64 0.0 0.0 0.00 9.90 0.00 98 1022.0
20260902123022 64 0.0 0.0 0.00 9.90 0.00 98 1022.0
20260902122025 64 0.0 0.0 0.00 9.90 0.00 98 1022.0
20260902121048 63 0.0 0.0 0.00 9.90 0.00 98 1022.1
20260902120031 63 0.0 0.0 0.00 9.90 0.00 98 1022.0
20260902115017 63 0.0 0.0 0.00 9.90 0.00 98 1022.1
20260902114020 63 0.0 0.0 0.00 9.90 0.00 98 1022.0
20260902113044 63 0.0 0.0 0.00 9.90 0.00 98 1021.9
20260902112047 63 0.0 0.0 0.00 9.90 0.00 98 1021.8
20260902111050 62 0.0 0.0 0.00 9.90 0.00 98 1021.6
20260902110015 62 0.0 0.0 0.00 9.90 0.00 98 1021.4
20260902105019 62 0.0 0.0 0.00 9.90 0.00 98 1021.2
20260902104022 62 0.0 0.0 0.00 9.90 0.00 98 1021.2
20260902103025 62 0.0 0.0 0.00 9.90 0.00 98 1021.3
20260902102049 62 0.0 0.0 0.00 9.90 0.00 98 1021.3
20260902101106 62 0.0 0.0 0.00 9.90 0.00 98 1021.1
20260902100017 62 0.0 0.0 0.00 9.90 0.00 98 1020.9
20260902095021 62 0.0 0.0 0.00 9.90 0.00 98 1020.9
20260902094018 62 0.0 0.0 0.00 9.90 0.00 98 1020.8
20260902093015 62 0.0 0.0 0.00 9.90 0.00 98 1020.7
20260902092030 62 0.0 0.0 0.00 9.90 0.00 98 1020.7
20260902091016 62 0.0 0.0 0.00 9.90 0.00 98 1020.6
20260902090019 62 0.0 0.0 0.00 9.90 0.00 98 1020.5
20260902085022 62 0.0 0.0 0.00 9.90 0.00 98 1020.4
20260902084026 62 0.0 0.0 0.00 9.90 0.00 98 1020.7
20260902083029 62 0.0 0.0 0.00 9.90 0.00 98 1020.8
20260902082033 62 0.0 0.0 0.00 9.90 0.00 97 1020.8
20260902081018 62 0.0 0.0 0.00 9.90 0.00 97 1020.9
20260902080022 62 0.0 0.0 0.00 9.90 0.00 97 1020.9
20260902075024 62 0.0 0.0 0.00 9.90 0.00 97 1020.8
20260902074027 62 0.0 0.0 0.00 9.90 0.00 97 1020.9
20260902073031 62 0.0 0.0 0.00 9.90 0.00 97 1020.9
20260902072016 62 0.0 0.0 0.00 9.90 0.00 97 1020.7
20260902071019 62 0.0 0.0 0.00 9.90 0.00 97 1020.5
20260902070023 62 0.0 0.0 0.00 9.90 0.00 97 1020.6
20260902065026 62 0.0 0.0 0.00 9.90 0.00 97 1020.5
20260902064030 62 0.0 0.0 0.00 9.90 0.00 97 1020.6
20260902063035 62 0.0 0.0 0.00 9.90 0.00 97 1020.7
20260902062018 62 0.0 0.0 0.00 9.90 0.00 97 1020.6
20260902061042 62 0.0 0.0 0.00 9.90 0.00 97 1020.5
20260902060019 62 0.0 0.0 0.00 9.90 0.00 97 1020.7
20260902055016 62 0.0 0.0 0.00 9.90 0.00 97 1020.6
20260902054132 62 0.0 0.0 0.00 9.90 0.00 96 1020.5
20260902053016 62 0.0 0.0 0.00 9.90 0.00 96 1020.5
20260902052020 62 0.0 0.0 0.00 9.90 0.00 96 1020.4
20260902051023 62 0.0 0.0 0.00 9.90 0.00 96 1020.2
20260902050026 62 0.0 0.0 0.00 9.90 0.00 96 1019.9
20260902045050 62 0.0 0.0 0.00 9.90 0.00 96 1019.8
20260902044015 62 0.0 0.0 0.00 9.90 0.00 96 1019.7
20260902043018 62 0.0 0.0 0.00 9.90 0.00 95 1019.7
20260902042022 62 0.0 0.0 0.00 9.90 0.00 95 1019.7
20260902041025 62 0.0 0.0 0.00 9.90 0.00 95 1019.4
20260902040028 62 0.0 0.0 0.00 9.90 0.00 95 1019.2
20260902035112 62 0.0 0.0 0.00 9.90 9.90 95 1019.0
20260902034017 62 0.0 0.0 0.00 9.90 9.90 95 1019.1
20260902033020 62 0.0 0.0 0.00 9.90 9.90 95 1019.0
20260902032023 62 0.0 0.0 0.00 9.90 9.90 94 1018.9
20260902031047 62 0.0 0.0 9.90 9.90 9.90 94 1019.1
20260902030030 63 0.0 0.0 9.90 9.90 9.90 94 1019.2
20260902025015 63 0.0 0.0 9.90 9.90 9.90 94 1019.1
20260902024018 63 0.0 0.0 9.90 9.90 9.90 94 1019.2
20260902023022 63 0.0 0.0 9.90 9.90 9.90 94 1019.2
20260902022019 63 0.0 0.0 9.90 9.90 9.90 94 1019.1
20260902021016 63 0.0 0.0 0.00 0.00 0.00 94 1019.3
20260902020032 63 0.0 0.0 0.00 0.00 0.00 94 1019.3
20260902015017 63 0.0 0.0 0.00 0.00 0.00 93 1019.2
20260902014101 63 0.0 0.0 0.00 0.00 0.00 92 1019.3
20260902013024 63 0.0 0.0 0.00 0.00 0.00 91 1019.2
20260902012047 63 0.0 0.0 0.00 0.00 0.00 91 1019.1
20260902011030 63 0.0 0.0 0.00 0.00 0.00 91 1019.1
20260902010035 63 0.0 0.0 0.00 0.00 0.00 91 1019.1
20260902005019 64 0.0 0.0 0.00 0.00 0.00 91 1018.9
20260902004022 64 0.0 0.0 0.00 0.00 0.00 89 1018.8
20260902003026 64 0.0 0.0 0.00 0.00 0.00 89 1018.7
20260902002029 64 0.0 0.0 0.00 0.00 0.00 89 1018.6
20260902001032 64 0.0 0.0 0.00 0.00 0.00 88 1018.4
20260902000018 64 0.0 0.0 0.00 0.00 0.00 88 1018.4
20260901235021 64 0.0 0.0 0.00 0.00 0.00 88 1018.5